TimePDT,TemperatureF,Dew PointF,Humidity,Sea Level PressureIn,VisibilityMPH,Wind Direction,Wind SpeedMPH,Gust SpeedMPH,PrecipitationIn,Events,Conditions,WindDirDegrees,DateUTC
12:53 AM,55.0,52.0,89,30.04,10.0,WNW,5.8,-,N/A,,Mostly Cloudy,290,2013-08-12 07:53:00
1:53 AM,54.0,52.0,93,30.03,10.0,NW,5.8,-,N/A,,Clear,310,2013-08-12 08:53:00
2:53 AM,53.1,51.1,93,30.03,10.0,WNW,4.6,-,N/A,,Clear,300,2013-08-12 09:53:00
3:53 AM,55.0,52.0,89,30.04,10.0,West,5.8,-,N/A,,Clear,280,2013-08-12 10:53:00
4:53 AM,55.9,53.1,90,30.05,10.0,West,5.8,-,N/A,,Overcast,270,2013-08-12 11:53:00
5:53 AM,57.0,53.1,87,30.05,10.0,West,8.1,-,N/A,,Overcast,280,2013-08-12 12:53:00
6:53 AM,57.9,53.1,84,30.05,10.0,West,6.9,-,N/A,,Overcast,270,2013-08-12 13:53:00
7:53 AM,59.0,54.0,83,30.06,10.0,WNW,3.5,-,N/A,,Overcast,300,2013-08-12 14:53:00
8:53 AM,61.0,53.1,75,30.06,10.0,WNW,5.8,-,N/A,,Overcast,300,2013-08-12 15:53:00
9:53 AM,60.1,54.0,80,30.08,10.0,NNW,4.6,-,N/A,,Mostly Cloudy,330,2013-08-12 16:53:00
10:53 AM,62.1,54.0,75,30.08,10.0,Variable,4.6,-,N/A,,Overcast,0,2013-08-12 17:53:00
11:53 AM,64.9,54.0,68,30.08,10.0,Variable,6.9,-,N/A,,Mostly Cloudy,0,2013-08-12 18:53:00
12:53 PM,64.9,54.0,68,30.07,10.0,NW,10.4,-,N/A,,Clear,320,2013-08-12 19:53:00
1:53 PM,64.9,54.0,68,30.07,10.0,NW,11.5,-,N/A,,Clear,320,2013-08-12 20:53:00
2:53 PM,66.0,53.1,63,30.08,10.0,NNW,10.4,-,N/A,,Mostly Cloudy,340,2013-08-12 21:53:00
3:53 PM,66.0,54.0,65,30.06,10.0,WNW,13.8,-,N/A,,Clear,300,2013-08-12 22:53:00
4:53 PM,64.0,53.1,67,30.06,10.0,NW,11.5,20.7,N/A,,Partly Cloudy,320,2013-08-12 23:53:00
5:53 PM,63.0,53.1,70,30.05,10.0,NW,10.4,-,N/A,,Scattered Clouds,310,2013-08-13 00:53:00
6:53 PM,62.1,53.1,72,30.06,10.0,WNW,12.7,-,N/A,,Clear,300,2013-08-13 01:53:00
7:53 PM,61.0,53.1,75,30.06,10.0,West,10.4,-,N/A,,Clear,280,2013-08-13 02:53:00
8:53 PM,57.9,52.0,81,30.06,10.0,West,10.4,-,N/A,,Clear,280,2013-08-13 03:53:00
9:53 PM,57.0,53.1,87,30.07,10.0,West,11.5,-,N/A,,Clear,280,2013-08-13 04:53:00
10:53 PM,57.0,53.1,87,30.08,10.0,West,8.1,-,N/A,,Clear,280,2013-08-13 05:53:00
11:53 PM,57.0,53.1,87,30.08,10.0,West,8.1,-,N/A,,Clear,270,2013-08-13 06:53:00